Year,Month,Day,Hour,Minute,Value (Times are PST for temperature in C)
2021,07,29,00,00,17.90
2021,07,29,00,01,17.90
2021,07,29,00,02,17.80
2021,07,29,00,03,17.80
2021,07,29,00,04,17.80
2021,07,29,00,05,17.80
2021,07,29,00,06,17.70
2021,07,29,00,07,17.70
2021,07,29,00,08,17.70
2021,07,29,00,09,17.60
2021,07,29,00,10,17.60
2021,07,29,00,11,17.60
2021,07,29,00,12,17.50
2021,07,29,00,13,17.50
2021,07,29,00,14,17.50
2021,07,29,00,15,17.40
2021,07,29,00,16,17.40
2021,07,29,00,17,17.40
2021,07,29,00,18,17.40
2021,07,29,00,19,17.30
2021,07,29,00,20,17.30
2021,07,29,00,21,17.30
2021,07,29,00,22,17.20
2021,07,29,00,23,17.20
2021,07,29,00,24,17.20
2021,07,29,00,25,17.10
2021,07,29,00,26,17.10
2021,07,29,00,27,17.10
2021,07,29,00,28,17.00
2021,07,29,00,29,17.00
2021,07,29,00,30,16.90
2021,07,29,00,31,16.90
2021,07,29,00,32,16.90
2021,07,29,00,33,16.80
2021,07,29,00,34,16.80
2021,07,29,00,35,16.80
2021,07,29,00,36,16.70
2021,07,29,00,37,16.70
2021,07,29,00,38,16.70
2021,07,29,00,39,16.70
2021,07,29,00,40,16.70
2021,07,29,00,41,16.70
2021,07,29,00,42,16.70
2021,07,29,00,43,16.70
2021,07,29,00,44,16.70
2021,07,29,00,45,16.70
2021,07,29,00,46,16.70
2021,07,29,00,47,16.70
2021,07,29,00,48,16.70
2021,07,29,00,49,16.70
2021,07,29,00,50,16.70
2021,07,29,00,51,16.70
2021,07,29,00,52,16.60
2021,07,29,00,53,16.60
2021,07,29,00,54,16.60
2021,07,29,00,55,16.60
2021,07,29,00,56,16.60
2021,07,29,00,57,16.60
2021,07,29,00,58,16.50
2021,07,29,00,59,16.50
2021,07,29,01,00,16.50
2021,07,29,01,01,16.40
2021,07,29,01,02,16.40
2021,07,29,01,03,16.40
2021,07,29,01,04,16.30
2021,07,29,01,05,16.30
2021,07,29,01,06,16.30
2021,07,29,01,07,16.30
2021,07,29,01,08,16.30
2021,07,29,01,09,16.30
2021,07,29,01,10,16.30
2021,07,29,01,11,16.20
2021,07,29,01,12,16.20
2021,07,29,01,13,16.20
2021,07,29,01,14,16.20
2021,07,29,01,15,16.20
2021,07,29,01,16,16.20
2021,07,29,01,17,16.20
2021,07,29,01,18,16.20
2021,07,29,01,19,16.20
2021,07,29,01,20,16.20
2021,07,29,01,21,16.10
2021,07,29,01,22,16.10
2021,07,29,01,23,16.10
2021,07,29,01,24,16.10
2021,07,29,01,25,16.10
2021,07,29,01,26,16.10
2021,07,29,01,27,16.10
2021,07,29,01,28,16.10
2021,07,29,01,29,16.10
2021,07,29,01,30,16.10
2021,07,29,01,31,16.00
2021,07,29,01,32,16.00
2021,07,29,01,33,16.00
2021,07,29,01,34,15.90
2021,07,29,01,35,15.90
2021,07,29,01,36,15.90
2021,07,29,01,37,15.90
2021,07,29,01,38,15.90
2021,07,29,01,39,15.90
2021,07,29,01,40,15.90
2021,07,29,01,41,15.90
2021,07,29,01,42,15.90
2021,07,29,01,43,15.90
2021,07,29,01,44,15.90
2021,07,29,01,45,15.90
2021,07,29,01,46,15.90
2021,07,29,01,47,15.90
2021,07,29,01,48,15.90
2021,07,29,01,49,15.90
2021,07,29,01,50,15.90
2021,07,29,01,51,15.90
2021,07,29,01,52,15.90
2021,07,29,01,53,15.90
2021,07,29,01,54,15.90
2021,07,29,01,55,15.80
2021,07,29,01,56,15.80
2021,07,29,01,57,15.80
2021,07,29,01,58,15.80
2021,07,29,01,59,15.80
2021,07,29,02,00,15.80
2021,07,29,02,01,15.80
2021,07,29,02,02,15.70
2021,07,29,02,03,15.70
2021,07,29,02,04,15.70
2021,07,29,02,05,15.70
2021,07,29,02,06,15.70
2021,07,29,02,07,15.70
2021,07,29,02,08,15.70
2021,07,29,02,09,15.70
2021,07,29,02,10,15.70
2021,07,29,02,11,15.70
2021,07,29,02,12,15.70
2021,07,29,02,13,15.70
2021,07,29,02,14,15.70
2021,07,29,02,15,15.70
2021,07,29,02,16,15.60
2021,07,29,02,17,15.60
2021,07,29,02,18,15.60
2021,07,29,02,19,15.60
2021,07,29,02,20,15.60
2021,07,29,02,21,15.60
2021,07,29,02,22,15.60
2021,07,29,02,23,15.50
2021,07,29,02,24,15.50
2021,07,29,02,25,15.50
2021,07,29,02,26,15.50
2021,07,29,02,27,15.50
2021,07,29,02,28,15.40
2021,07,29,02,29,15.40
2021,07,29,02,30,15.40
2021,07,29,02,31,15.40
2021,07,29,02,32,15.40
2021,07,29,02,33,15.40
2021,07,29,02,34,15.40
2021,07,29,02,35,15.30
2021,07,29,02,36,15.30
2021,07,29,02,37,15.30
2021,07,29,02,38,15.30
2021,07,29,02,39,15.30
2021,07,29,02,40,15.30
2021,07,29,02,41,15.30
2021,07,29,02,42,15.20
2021,07,29,02,43,15.20
2021,07,29,02,44,15.20
2021,07,29,02,45,15.20
2021,07,29,02,46,15.20
2021,07,29,02,47,15.20
2021,07,29,02,48,15.20
2021,07,29,02,49,15.20
2021,07,29,02,50,15.20
2021,07,29,02,51,15.20
2021,07,29,02,52,15.10
2021,07,29,02,53,15.10
2021,07,29,02,54,15.10
2021,07,29,02,55,15.10
2021,07,29,02,56,15.10
2021,07,29,02,57,15.10
2021,07,29,02,58,15.10
2021,07,29,02,59,15.10
2021,07,29,03,00,15.10
2021,07,29,03,01,15.10
2021,07,29,03,02,15.10
2021,07,29,03,03,15.10
2021,07,29,03,04,15.10
2021,07,29,03,05,15.10
2021,07,29,03,06,15.10
2021,07,29,03,07,15.10
2021,07,29,03,08,15.00
2021,07,29,03,09,15.00
2021,07,29,03,10,15.00
2021,07,29,03,11,15.00
2021,07,29,03,12,15.00
2021,07,29,03,13,15.00
2021,07,29,03,14,15.00
2021,07,29,03,15,15.00
2021,07,29,03,16,15.00
2021,07,29,03,17,15.00
2021,07,29,03,18,14.90
2021,07,29,03,19,14.90
2021,07,29,03,20,14.90
2021,07,29,03,21,14.90
2021,07,29,03,22,14.90
2021,07,29,03,23,14.90
2021,07,29,03,24,14.90
2021,07,29,03,25,14.90
2021,07,29,03,26,14.90
2021,07,29,03,27,14.90
2021,07,29,03,28,14.90
2021,07,29,03,29,14.80
2021,07,29,03,30,14.80
2021,07,29,03,31,14.80
2021,07,29,03,32,14.80
2021,07,29,03,33,14.80
2021,07,29,03,34,14.80
2021,07,29,03,35,14.80
2021,07,29,03,36,14.80
2021,07,29,03,37,14.80
2021,07,29,03,38,14.80
2021,07,29,03,39,14.70
2021,07,29,03,40,14.70
2021,07,29,03,41,14.80
2021,07,29,03,42,14.80
2021,07,29,03,43,14.80
2021,07,29,03,44,14.70
2021,07,29,03,45,14.80
2021,07,29,03,46,14.70
2021,07,29,03,47,14.80
2021,07,29,03,48,14.80
2021,07,29,03,49,14.80
2021,07,29,03,50,14.70
2021,07,29,03,51,14.70
2021,07,29,03,52,14.70
2021,07,29,03,53,14.70
2021,07,29,03,54,14.70
2021,07,29,03,55,14.70
2021,07,29,03,56,14.70
2021,07,29,03,57,14.70
2021,07,29,03,58,14.70
2021,07,29,03,59,14.70
2021,07,29,04,00,14.70
2021,07,29,04,01,14.70
2021,07,29,04,02,14.70
2021,07,29,04,03,14.70
2021,07,29,04,04,14.60
2021,07,29,04,05,14.60
2021,07,29,04,06,14.60
2021,07,29,04,07,14.60
2021,07,29,04,08,14.60
2021,07,29,04,09,14.60
2021,07,29,04,10,14.60
2021,07,29,04,11,14.60
2021,07,29,04,12,14.60
2021,07,29,04,13,14.60
2021,07,29,04,14,14.60
2021,07,29,04,15,14.60
2021,07,29,04,16,14.50
2021,07,29,04,17,14.50
2021,07,29,04,18,14.50
2021,07,29,04,19,14.50
2021,07,29,04,20,14.50
2021,07,29,04,21,14.50
2021,07,29,04,22,14.50
2021,07,29,04,23,14.40
2021,07,29,04,24,14.40
2021,07,29,04,25,14.40
2021,07,29,04,26,14.40
2021,07,29,04,27,14.40
2021,07,29,04,28,14.40
2021,07,29,04,29,14.40
2021,07,29,04,30,14.40
2021,07,29,04,31,14.40
2021,07,29,04,32,14.40
2021,07,29,04,33,14.40
2021,07,29,04,34,14.40
2021,07,29,04,35,14.40
2021,07,29,04,36,14.40
2021,07,29,04,37,14.40
2021,07,29,04,38,14.40
2021,07,29,04,39,14.30
2021,07,29,04,40,14.30
2021,07,29,04,41,14.30
2021,07,29,04,42,14.30
2021,07,29,04,43,14.40
2021,07,29,04,44,14.40
2021,07,29,04,45,14.40
2021,07,29,04,46,14.40
2021,07,29,04,47,14.40
2021,07,29,04,48,14.40
2021,07,29,04,49,14.40
2021,07,29,04,50,14.40
2021,07,29,04,51,14.40
2021,07,29,04,52,14.40
2021,07,29,04,53,14.40
2021,07,29,04,54,14.40
2021,07,29,04,55,14.40
2021,07,29,04,56,14.40
2021,07,29,04,57,14.40
2021,07,29,04,58,14.40
2021,07,29,04,59,14.40
2021,07,29,05,00,14.40
2021,07,29,05,01,14.40
2021,07,29,05,02,14.30
2021,07,29,05,03,14.30
2021,07,29,05,04,14.30
2021,07,29,05,05,14.30
2021,07,29,05,06,14.30
2021,07,29,05,07,14.30
2021,07,29,05,08,14.30
2021,07,29,05,09,14.30
2021,07,29,05,10,14.30
2021,07,29,05,11,14.30
2021,07,29,05,12,14.30
2021,07,29,05,13,14.30
2021,07,29,05,14,14.30
2021,07,29,05,15,14.30
2021,07,29,05,16,14.30
2021,07,29,05,17,14.30
2021,07,29,05,18,14.30
2021,07,29,05,19,14.30
2021,07,29,05,20,14.30
2021,07,29,05,21,14.30
2021,07,29,05,22,14.30
2021,07,29,05,23,14.30
2021,07,29,05,24,14.30
2021,07,29,05,25,14.30
2021,07,29,05,26,14.30
2021,07,29,05,27,14.30
2021,07,29,05,28,14.30
2021,07,29,05,29,14.30
2021,07,29,05,30,14.30
2021,07,29,05,31,14.30
2021,07,29,05,32,14.30
2021,07,29,05,33,14.30
2021,07,29,05,34,14.30
2021,07,29,05,35,14.30
2021,07,29,05,36,14.30
2021,07,29,05,37,14.30
2021,07,29,05,38,14.30
2021,07,29,05,39,14.30
2021,07,29,05,40,14.30
2021,07,29,05,41,14.30
2021,07,29,05,42,14.30
2021,07,29,05,43,14.30
2021,07,29,05,44,14.30
2021,07,29,05,45,14.30
2021,07,29,05,46,14.30
2021,07,29,05,47,14.30
2021,07,29,05,48,14.30
2021,07,29,05,49,14.20
2021,07,29,05,50,14.30
2021,07,29,05,51,14.20
2021,07,29,05,52,14.20
2021,07,29,05,53,14.20
2021,07,29,05,54,14.20
2021,07,29,05,55,14.20
2021,07,29,05,56,14.20
2021,07,29,05,57,14.30
2021,07,29,05,58,14.30
2021,07,29,05,59,14.30
2021,07,29,06,00,14.30
2021,07,29,06,01,14.30
2021,07,29,06,02,14.30
2021,07,29,06,03,14.30
2021,07,29,06,04,14.30
2021,07,29,06,05,14.30
2021,07,29,06,06,14.30
2021,07,29,06,07,14.40
2021,07,29,06,08,14.40
2021,07,29,06,09,14.40
2021,07,29,06,10,14.40
2021,07,29,06,11,14.40
2021,07,29,06,12,14.40
2021,07,29,06,13,14.50
2021,07,29,06,14,14.50
2021,07,29,06,15,14.50
2021,07,29,06,16,14.50
2021,07,29,06,17,14.50
2021,07,29,06,18,14.60
2021,07,29,06,19,14.60
2021,07,29,06,20,14.60
2021,07,29,06,21,14.60
2021,07,29,06,22,14.60
2021,07,29,06,23,14.60
2021,07,29,06,24,14.60
2021,07,29,06,25,14.60
2021,07,29,06,26,14.60
2021,07,29,06,27,14.60
2021,07,29,06,28,14.60
2021,07,29,06,29,14.60
2021,07,29,06,30,14.60
2021,07,29,06,31,14.60
2021,07,29,06,32,14.60
2021,07,29,06,33,14.70
2021,07,29,06,34,14.70
2021,07,29,06,35,14.70
2021,07,29,06,36,14.70
2021,07,29,06,37,14.70
2021,07,29,06,38,14.70
2021,07,29,06,39,14.70
2021,07,29,06,40,14.70
2021,07,29,06,41,14.70
2021,07,29,06,42,14.70
2021,07,29,06,43,14.70
2021,07,29,06,44,14.70
2021,07,29,06,45,14.70
2021,07,29,06,46,14.70
2021,07,29,06,47,14.80
2021,07,29,06,48,14.80
2021,07,29,06,49,14.80
2021,07,29,06,50,14.80
2021,07,29,06,51,14.90
2021,07,29,06,52,14.90
2021,07,29,06,53,15.00
2021,07,29,06,54,15.10
2021,07,29,06,55,15.10
2021,07,29,06,56,15.20
2021,07,29,06,57,15.20
2021,07,29,06,58,15.20
2021,07,29,06,59,15.20
2021,07,29,07,00,15.30
2021,07,29,07,01,15.30
2021,07,29,07,02,15.30
2021,07,29,07,03,15.30
2021,07,29,07,04,15.30
2021,07,29,07,05,15.40
2021,07,29,07,06,15.50
2021,07,29,07,07,15.50
2021,07,29,07,08,15.60
2021,07,29,07,09,15.60
2021,07,29,07,10,15.70
2021,07,29,07,11,15.70
2021,07,29,07,12,15.80
2021,07,29,07,13,15.80
2021,07,29,07,14,15.90
2021,07,29,07,15,15.90
2021,07,29,07,16,16.00
2021,07,29,07,17,16.10
2021,07,29,07,18,16.30
2021,07,29,07,19,16.40
2021,07,29,07,20,16.50
2021,07,29,07,21,16.60
2021,07,29,07,22,16.70
2021,07,29,07,23,16.80
2021,07,29,07,24,16.90
2021,07,29,07,25,17.00
2021,07,29,07,26,17.00
2021,07,29,07,27,17.10
2021,07,29,07,28,17.10
2021,07,29,07,29,17.20
2021,07,29,07,30,17.20
2021,07,29,07,31,17.20
2021,07,29,07,32,17.20
2021,07,29,07,33,17.20
2021,07,29,07,34,17.20
2021,07,29,07,35,17.20
2021,07,29,07,36,17.30
2021,07,29,07,37,17.30
2021,07,29,07,38,17.30
2021,07,29,07,39,17.40
2021,07,29,07,40,17.40
2021,07,29,07,41,17.50
2021,07,29,07,42,17.50
2021,07,29,07,43,17.60
2021,07,29,07,44,17.60
2021,07,29,07,45,17.70
2021,07,29,07,46,17.80
2021,07,29,07,47,17.80
2021,07,29,07,48,17.90
2021,07,29,07,49,18.00
2021,07,29,07,50,18.00
2021,07,29,07,51,18.10
2021,07,29,07,52,18.10
2021,07,29,07,53,18.20
2021,07,29,07,54,18.20
2021,07,29,07,55,18.30
2021,07,29,07,56,18.30
2021,07,29,07,57,18.30
2021,07,29,07,58,18.40
2021,07,29,07,59,18.40
2021,07,29,08,00,18.40
2021,07,29,08,01,18.40
2021,07,29,08,02,18.40
2021,07,29,08,03,18.50
2021,07,29,08,04,18.50
2021,07,29,08,05,18.50
2021,07,29,08,06,18.50
2021,07,29,08,07,18.60
2021,07,29,08,08,18.60
2021,07,29,08,09,18.60
2021,07,29,08,10,18.60
2021,07,29,08,11,18.60
2021,07,29,08,12,18.70
2021,07,29,08,13,18.70
2021,07,29,08,14,18.70
2021,07,29,08,15,18.70
2021,07,29,08,16,18.70
2021,07,29,08,17,18.70
2021,07,29,08,18,18.80
2021,07,29,08,19,18.80
2021,07,29,08,20,18.80
2021,07,29,08,21,18.80
2021,07,29,08,22,18.90
2021,07,29,08,23,18.90
2021,07,29,08,24,18.90
2021,07,29,08,25,18.90
2021,07,29,08,26,19.00
2021,07,29,08,27,19.00
2021,07,29,08,28,19.00
2021,07,29,08,29,19.10
2021,07,29,08,30,19.10
2021,07,29,08,31,19.10
2021,07,29,08,32,19.10
2021,07,29,08,33,19.10
2021,07,29,08,34,19.20
2021,07,29,08,35,19.20
2021,07,29,08,36,19.20
2021,07,29,08,37,19.20
2021,07,29,08,38,19.30
2021,07,29,08,39,19.30
2021,07,29,08,40,19.30
2021,07,29,08,41,19.30
2021,07,29,08,42,19.30
2021,07,29,08,43,19.40
2021,07,29,08,44,19.40
2021,07,29,08,45,19.40
2021,07,29,08,46,19.40
2021,07,29,08,47,19.40
2021,07,29,08,48,19.50
2021,07,29,08,49,19.50
2021,07,29,08,50,19.60
2021,07,29,08,51,19.60
2021,07,29,08,52,19.60
2021,07,29,08,53,19.60
2021,07,29,08,54,19.60
2021,07,29,08,55,19.60
2021,07,29,08,56,19.70
2021,07,29,08,57,19.70
2021,07,29,08,58,19.70
2021,07,29,08,59,19.70
2021,07,29,09,00,19.80
2021,07,29,09,01,19.80
2021,07,29,09,02,19.80
2021,07,29,09,03,19.90
2021,07,29,09,04,20.00
2021,07,29,09,05,20.00
2021,07,29,09,06,20.10
2021,07,29,09,07,20.20
2021,07,29,09,08,20.30
2021,07,29,09,09,20.40
2021,07,29,09,10,20.40
2021,07,29,09,11,20.50
2021,07,29,09,12,20.60
2021,07,29,09,13,20.70
2021,07,29,09,14,20.80
2021,07,29,09,15,20.80
2021,07,29,09,16,20.90
2021,07,29,09,17,21.00
2021,07,29,09,18,21.10
2021,07,29,09,19,21.20
2021,07,29,09,20,21.30
2021,07,29,09,21,21.40
2021,07,29,09,22,21.50
2021,07,29,09,23,21.60
2021,07,29,09,24,21.70
2021,07,29,09,25,21.80
2021,07,29,09,26,21.90
2021,07,29,09,27,22.00
2021,07,29,09,28,22.20
2021,07,29,09,29,22.30
2021,07,29,09,30,22.40
2021,07,29,09,31,22.50
2021,07,29,09,32,22.60
2021,07,29,09,33,22.70
2021,07,29,09,34,22.80
2021,07,29,09,35,22.80
2021,07,29,09,36,22.90
2021,07,29,09,37,22.90
2021,07,29,09,38,22.90
2021,07,29,09,39,22.80
2021,07,29,09,40,22.80
2021,07,29,09,41,22.70
2021,07,29,09,42,22.70
2021,07,29,09,43,22.70
2021,07,29,09,44,22.60
2021,07,29,09,45,22.60
2021,07,29,09,46,22.50
2021,07,29,09,47,22.50
2021,07,29,09,48,22.50
2021,07,29,09,49,22.40
2021,07,29,09,50,22.40
2021,07,29,09,51,22.40
2021,07,29,09,52,22.40
2021,07,29,09,53,22.40
2021,07,29,09,54,22.40
2021,07,29,09,55,22.30
2021,07,29,09,56,22.30
2021,07,29,09,57,22.30
2021,07,29,09,58,22.30
2021,07,29,09,59,22.30
2021,07,29,10,00,22.30
2021,07,29,10,01,22.30
2021,07,29,10,02,22.30
2021,07,29,10,03,22.30
2021,07,29,10,04,22.30
2021,07,29,10,05,22.30
2021,07,29,10,06,22.30
2021,07,29,10,07,22.20
2021,07,29,10,08,22.20
2021,07,29,10,09,22.20
2021,07,29,10,10,22.20
2021,07,29,10,11,22.20
2021,07,29,10,12,22.20
2021,07,29,10,13,22.20
2021,07,29,10,14,22.20
2021,07,29,10,15,22.20
2021,07,29,10,16,22.20
2021,07,29,10,17,22.20
2021,07,29,10,18,22.20
2021,07,29,10,19,22.20
2021,07,29,10,20,22.20
2021,07,29,10,21,22.20
2021,07,29,10,22,22.20
2021,07,29,10,23,22.10
2021,07,29,10,24,22.10
2021,07,29,10,25,22.10
2021,07,29,10,26,22.10
2021,07,29,10,27,22.10
2021,07,29,10,28,22.10
2021,07,29,10,29,22.10
2021,07,29,10,30,22.10
2021,07,29,10,31,22.10
2021,07,29,10,32,22.10
2021,07,29,10,33,22.10
2021,07,29,10,34,22.10
2021,07,29,10,35,22.10
2021,07,29,10,36,22.10
2021,07,29,10,37,22.20
2021,07,29,10,38,22.20
2021,07,29,10,39,22.20
2021,07,29,10,40,22.20
2021,07,29,10,41,22.20
2021,07,29,10,42,22.20
2021,07,29,10,43,22.20
2021,07,29,10,44,22.20
2021,07,29,10,45,22.30
2021,07,29,10,46,22.30
2021,07,29,10,47,22.30
2021,07,29,10,48,22.30
2021,07,29,10,49,22.30
2021,07,29,10,50,22.30
2021,07,29,10,51,22.30
2021,07,29,10,52,22.30
2021,07,29,10,53,22.30
2021,07,29,10,54,22.20
2021,07,29,10,55,22.20
2021,07,29,10,56,22.20
2021,07,29,10,57,22.20
2021,07,29,10,58,22.20
2021,07,29,10,59,22.20
2021,07,29,11,00,22.20
2021,07,29,11,01,22.20
2021,07,29,11,02,22.30
2021,07,29,11,03,22.30
2021,07,29,11,04,22.30
2021,07,29,11,05,22.30
2021,07,29,11,06,22.30
2021,07,29,11,07,22.30
2021,07,29,11,08,22.40
2021,07,29,11,09,22.40
2021,07,29,11,10,22.40
2021,07,29,11,11,22.40
2021,07,29,11,12,22.40
2021,07,29,11,13,22.50
2021,07,29,11,14,22.50
2021,07,29,11,15,22.40
2021,07,29,11,16,22.40
2021,07,29,11,17,22.30
2021,07,29,11,18,22.30
2021,07,29,11,19,22.20
2021,07,29,11,20,22.20
2021,07,29,11,21,22.20
2021,07,29,11,22,22.20
2021,07,29,11,23,22.20
2021,07,29,11,24,22.20
2021,07,29,11,25,22.10
2021,07,29,11,26,22.10
2021,07,29,11,27,22.10
2021,07,29,11,28,22.00
2021,07,29,11,29,21.90
2021,07,29,11,30,21.90
2021,07,29,11,31,21.90
2021,07,29,11,32,21.80
2021,07,29,11,33,21.80
2021,07,29,11,34,21.80
2021,07,29,11,35,21.80
2021,07,29,11,36,21.80
2021,07,29,11,37,21.70
2021,07,29,11,38,21.70
2021,07,29,11,39,21.70
2021,07,29,11,40,21.70
2021,07,29,11,41,21.60
2021,07,29,11,42,21.60
2021,07,29,11,43,21.60
2021,07,29,11,44,21.60
2021,07,29,11,45,21.60
2021,07,29,11,46,21.60
2021,07,29,11,47,21.60
2021,07,29,11,48,21.70
2021,07,29,11,49,21.70
2021,07,29,11,50,21.70
2021,07,29,11,51,21.70
2021,07,29,11,52,21.70
2021,07,29,11,53,21.70
2021,07,29,11,54,21.70
2021,07,29,11,55,21.70
2021,07,29,11,56,21.70
2021,07,29,11,57,21.70
2021,07,29,11,58,21.70
2021,07,29,11,59,21.70
2021,07,29,12,00,21.80
2021,07,29,12,01,21.80
2021,07,29,12,02,21.80
2021,07,29,12,03,21.80
2021,07,29,12,04,21.80
2021,07,29,12,05,21.80
2021,07,29,12,06,21.80
2021,07,29,12,07,21.80
2021,07,29,12,08,21.80
2021,07,29,12,09,21.80
2021,07,29,12,10,21.80
2021,07,29,12,11,21.80
2021,07,29,12,12,21.80
2021,07,29,12,13,21.80
2021,07,29,12,14,21.80
2021,07,29,12,15,21.80
2021,07,29,12,16,21.80
2021,07,29,12,17,21.70
2021,07,29,12,18,21.70
2021,07,29,12,19,21.70
2021,07,29,12,20,21.70
2021,07,29,12,21,21.60
2021,07,29,12,22,21.60
2021,07,29,12,23,21.60
2021,07,29,12,24,21.60
2021,07,29,12,25,21.60
2021,07,29,12,26,21.60
2021,07,29,12,27,21.60
2021,07,29,12,28,21.60
2021,07,29,12,29,21.60
2021,07,29,12,30,21.60
2021,07,29,12,31,21.70
2021,07,29,12,32,21.70
2021,07,29,12,33,21.70
2021,07,29,12,34,21.80
2021,07,29,12,35,21.80
2021,07,29,12,36,21.80
2021,07,29,12,37,21.80
2021,07,29,12,38,21.80
2021,07,29,12,39,21.80
2021,07,29,12,40,21.80
2021,07,29,12,41,21.90
2021,07,29,12,42,21.90
2021,07,29,12,43,21.90
2021,07,29,12,44,22.00
2021,07,29,12,45,22.00
2021,07,29,12,46,22.00
2021,07,29,12,47,22.10
2021,07,29,12,48,22.10
2021,07,29,12,49,22.10
2021,07,29,12,50,22.10
2021,07,29,12,51,22.10
2021,07,29,12,52,22.20
2021,07,29,12,53,22.20
2021,07,29,12,54,22.30
2021,07,29,12,55,22.40
2021,07,29,12,56,22.40
2021,07,29,12,57,22.40
2021,07,29,12,58,22.50
2021,07,29,12,59,22.50
2021,07,29,13,00,22.60
2021,07,29,13,01,22.70
2021,07,29,13,02,22.80
2021,07,29,13,03,22.80
2021,07,29,13,04,22.90
2021,07,29,13,05,23.00
2021,07,29,13,06,23.10
2021,07,29,13,07,23.20
2021,07,29,13,08,23.20
2021,07,29,13,09,23.30
2021,07,29,13,10,23.40
2021,07,29,13,11,23.50
2021,07,29,13,12,23.50
2021,07,29,13,13,23.60
2021,07,29,13,14,23.60
2021,07,29,13,15,23.60
2021,07,29,13,16,23.60
2021,07,29,13,17,23.60
2021,07,29,13,18,23.50
2021,07,29,13,19,23.40
2021,07,29,13,20,23.40
2021,07,29,13,21,23.30
2021,07,29,13,22,23.30
2021,07,29,13,23,23.20
2021,07,29,13,24,23.20
2021,07,29,13,25,23.20
2021,07,29,13,26,23.20
2021,07,29,13,27,23.20
2021,07,29,13,28,23.20
2021,07,29,13,29,23.20
2021,07,29,13,30,23.10
2021,07,29,13,31,23.10
2021,07,29,13,32,23.10
2021,07,29,13,33,23.10
2021,07,29,13,34,23.10
2021,07,29,13,35,23.10
2021,07,29,13,36,23.20
2021,07,29,13,37,23.20
2021,07,29,13,38,23.20
2021,07,29,13,39,23.30
2021,07,29,13,40,23.40
2021,07,29,13,41,23.40
2021,07,29,13,42,23.50
2021,07,29,13,43,23.60
2021,07,29,13,44,23.60
2021,07,29,13,45,23.60
2021,07,29,13,46,23.70
2021,07,29,13,47,23.80
2021,07,29,13,48,23.90
2021,07,29,13,49,23.90
2021,07,29,13,50,24.10
2021,07,29,13,51,24.20
2021,07,29,13,52,24.20
2021,07,29,13,53,24.30
2021,07,29,13,54,24.40
2021,07,29,13,55,24.40
2021,07,29,13,56,24.50
2021,07,29,13,57,24.50
2021,07,29,13,58,24.60
2021,07,29,13,59,24.60
2021,07,29,14,00,24.70
2021,07,29,14,01,24.80
2021,07,29,14,02,24.80
2021,07,29,14,03,24.80
2021,07,29,14,04,24.90
2021,07,29,14,05,24.90
2021,07,29,14,06,25.00
2021,07,29,14,07,25.00
2021,07,29,14,08,25.10
2021,07,29,14,09,25.10
2021,07,29,14,10,25.10
2021,07,29,14,11,25.10
2021,07,29,14,12,25.20
2021,07,29,14,13,25.20
2021,07,29,14,14,25.20
2021,07,29,14,15,25.10
2021,07,29,14,16,25.10
2021,07,29,14,17,25.10
2021,07,29,14,18,25.10
2021,07,29,14,19,25.00
2021,07,29,14,20,24.90
2021,07,29,14,21,24.90
2021,07,29,14,22,24.80
2021,07,29,14,23,24.80
2021,07,29,14,24,24.70
2021,07,29,14,25,24.70
2021,07,29,14,26,24.70
2021,07,29,14,27,24.60
2021,07,29,14,28,24.50
2021,07,29,14,29,24.40
2021,07,29,14,30,24.40
2021,07,29,14,31,24.40
2021,07,29,14,32,24.40
2021,07,29,14,33,24.50
2021,07,29,14,34,24.50
2021,07,29,14,35,24.60
2021,07,29,14,36,24.60
2021,07,29,14,37,24.70
2021,07,29,14,38,24.70
2021,07,29,14,39,24.70
2021,07,29,14,40,24.70
2021,07,29,14,41,24.70
2021,07,29,14,42,24.70
2021,07,29,14,43,24.70
2021,07,29,14,44,24.70
2021,07,29,14,45,24.80
2021,07,29,14,46,24.80
2021,07,29,14,47,24.80
2021,07,29,14,48,24.90
2021,07,29,14,49,25.00
2021,07,29,14,50,25.00
2021,07,29,14,51,25.10
2021,07,29,14,52,25.10
2021,07,29,14,53,25.20
2021,07,29,14,54,25.20
2021,07,29,14,55,25.30
2021,07,29,14,56,25.30
2021,07,29,14,57,25.30
2021,07,29,14,58,25.40
2021,07,29,14,59,25.40
2021,07,29,15,00,25.40
2021,07,29,15,01,25.40
2021,07,29,15,02,25.50
2021,07,29,15,03,25.50
2021,07,29,15,04,25.50
2021,07,29,15,05,25.50
2021,07,29,15,06,25.40
2021,07,29,15,07,25.50
2021,07,29,15,08,25.40
2021,07,29,15,09,25.40
2021,07,29,15,10,25.40
2021,07,29,15,11,25.50
2021,07,29,15,12,25.50
2021,07,29,15,13,25.50
2021,07,29,15,14,25.50
2021,07,29,15,15,25.40
2021,07,29,15,16,25.40
2021,07,29,15,17,25.50
2021,07,29,15,18,25.50
2021,07,29,15,19,25.50
2021,07,29,15,20,25.50
2021,07,29,15,21,25.50
2021,07,29,15,22,25.50
2021,07,29,15,23,25.60
2021,07,29,15,24,25.60
2021,07,29,15,25,25.60
2021,07,29,15,26,25.60
2021,07,29,15,27,25.60
2021,07,29,15,28,25.70
2021,07,29,15,29,25.70
2021,07,29,15,30,25.70
2021,07,29,15,31,25.70
2021,07,29,15,32,25.70
2021,07,29,15,33,25.70
2021,07,29,15,34,25.70
2021,07,29,15,35,25.70
2021,07,29,15,36,25.70
2021,07,29,15,37,25.70
2021,07,29,15,38,25.70
2021,07,29,15,39,25.70
2021,07,29,15,40,25.60
2021,07,29,15,41,25.60
2021,07,29,15,42,25.50
2021,07,29,15,43,25.40
2021,07,29,15,44,25.30
2021,07,29,15,45,25.30
2021,07,29,15,46,25.30
2021,07,29,15,47,25.20
2021,07,29,15,48,25.20
2021,07,29,15,49,25.30
2021,07,29,15,50,25.20
2021,07,29,15,51,25.30
2021,07,29,15,52,25.30
2021,07,29,15,53,25.30
2021,07,29,15,54,25.20
2021,07,29,15,55,25.20
2021,07,29,15,56,25.10
2021,07,29,15,57,25.10
2021,07,29,15,58,25.00
2021,07,29,15,59,25.00
2021,07,29,16,00,24.90
2021,07,29,16,01,24.80
2021,07,29,16,02,24.80
2021,07,29,16,03,24.80
2021,07,29,16,04,24.70
2021,07,29,16,05,24.70
2021,07,29,16,06,24.60
2021,07,29,16,07,24.60
2021,07,29,16,08,24.50
2021,07,29,16,09,24.50
2021,07,29,16,10,24.50
2021,07,29,16,11,24.40
2021,07,29,16,12,24.40
2021,07,29,16,13,24.40
2021,07,29,16,14,24.40
2021,07,29,16,15,24.40
2021,07,29,16,16,24.50
2021,07,29,16,17,24.50
2021,07,29,16,18,24.60
2021,07,29,16,19,24.70
2021,07,29,16,20,24.80
2021,07,29,16,21,24.80
2021,07,29,16,22,24.90
2021,07,29,16,23,24.90
2021,07,29,16,24,25.00
2021,07,29,16,25,25.10
2021,07,29,16,26,25.10
2021,07,29,16,27,25.20
2021,07,29,16,28,25.20
2021,07,29,16,29,25.30
2021,07,29,16,30,25.30
2021,07,29,16,31,25.30
2021,07,29,16,32,25.30
2021,07,29,16,33,25.30
2021,07,29,16,34,25.30
2021,07,29,16,35,25.30
2021,07,29,16,36,25.30
2021,07,29,16,37,25.10
2021,07,29,16,38,25.10
2021,07,29,16,39,25.00
2021,07,29,16,40,24.90
2021,07,29,16,41,24.90
2021,07,29,16,42,24.80
2021,07,29,16,43,24.70
2021,07,29,16,44,24.70
2021,07,29,16,45,24.60
2021,07,29,16,46,24.50
2021,07,29,16,47,24.40
2021,07,29,16,48,24.40
2021,07,29,16,49,24.40
2021,07,29,16,50,24.30
2021,07,29,16,51,24.30
2021,07,29,16,52,24.30
2021,07,29,16,53,24.30
2021,07,29,16,54,24.30
2021,07,29,16,55,24.30
2021,07,29,16,56,24.30
2021,07,29,16,57,24.30
2021,07,29,16,58,24.30
2021,07,29,16,59,24.30
2021,07,29,17,00,24.30
2021,07,29,17,01,24.30
2021,07,29,17,02,24.20
2021,07,29,17,03,24.20
2021,07,29,17,04,24.30
2021,07,29,17,05,24.30
2021,07,29,17,06,24.30
2021,07,29,17,07,24.30
2021,07,29,17,08,24.30
2021,07,29,17,09,24.20
2021,07,29,17,10,24.20
2021,07,29,17,11,24.20
2021,07,29,17,12,24.20
2021,07,29,17,13,24.20
2021,07,29,17,14,24.20
2021,07,29,17,15,24.10
2021,07,29,17,16,24.10
2021,07,29,17,17,24.10
2021,07,29,17,18,24.00
2021,07,29,17,19,24.00